WZZ1825 LCLK-LHBP

Flight info

Callsign WZZ1825
Flight time N/A
Altitude 36000
Route PHA DCT GENOS DCT PEDER DCT EVENO DCT BENEM UN127 RIKSO DCT ATFIR DCT ERDOM N133 LOMOS DCT PADGU DCT DEGET DCT KEZAL
Aircraft A321/M-SDE3FGHIRWY/LB1

Departure

Time N/A
Airport Larnaca International Airport (LCLK)

Arrival

Time 2026-05-07 13:34
Airport Budapest Liszt Ferenc International Airport (LHBP)
Time Latitude Longitude Altitude Speed Heading
2026-05-07 13:10 46.34759 21.38546 36065 ft 456 kts 326°
2026-05-07 13:11 46.40310 21.34069 36081 ft 456 kts 326°
2026-05-07 13:11 46.45853 21.29582 36050 ft 457 kts 326°
2026-05-07 13:12 46.50942 21.24257 36032 ft 447 kts 310°
2026-05-07 13:12 46.55210 21.17710 36035 ft 446 kts 308°
2026-05-07 13:13 46.59469 21.11127 36033 ft 447 kts 308°
2026-05-07 13:13 46.63703 21.04581 36045 ft 447 kts 308°
2026-05-07 13:14 46.67957 20.97960 36031 ft 448 kts 308°
2026-05-07 13:14 46.72213 20.91312 36029 ft 448 kts 308°
2026-05-07 13:15 46.76472 20.84661 36028 ft 449 kts 308°
2026-05-07 13:15 46.78599 20.81335 35734 ft 447 kts 308°
2026-05-07 13:15 46.80244 20.78757 35280 ft 448 kts 307°
2026-05-07 13:18 46.81674 20.76516 34860 ft 448 kts 307°
2026-05-07 13:18 46.83794 20.73186 34281 ft 448 kts 307°
2026-05-07 13:19 46.85918 20.69845 33632 ft 448 kts 307°
2026-05-07 13:19 46.88040 20.66506 32925 ft 448 kts 307°
2026-05-07 13:19 46.90139 20.63202 32219 ft 449 kts 307°
2026-05-07 13:19 46.92265 20.59850 31491 ft 449 kts 307°
2026-05-07 13:20 46.94397 20.56488 30781 ft 450 kts 307°
2026-05-07 13:20 46.96530 20.53121 30037 ft 450 kts 307°
2026-05-07 13:20 46.98662 20.49746 29150 ft 451 kts 307°
2026-05-07 13:20 47.00798 20.46356 28214 ft 454 kts 307°
2026-05-07 13:21 47.02945 20.42944 27339 ft 455 kts 308°
2026-05-07 13:21 47.05078 20.39549 26649 ft 451 kts 308°
2026-05-07 13:21 47.07173 20.36219 25977 ft 447 kts 308°
2026-05-07 13:21 47.09274 20.32875 25292 ft 444 kts 308°
2026-05-07 13:22 47.11358 20.29552 24657 ft 440 kts 308°
2026-05-07 13:22 47.13426 20.26252 24008 ft 437 kts 309°
2026-05-07 13:22 47.15484 20.22968 23324 ft 434 kts 309°
2026-05-07 13:22 47.17531 20.19720 22594 ft 430 kts 309°
2026-05-07 13:23 47.19562 20.16527 21666 ft 426 kts 309°
2026-05-07 13:23 47.21573 20.13374 20649 ft 420 kts 310°
2026-05-07 13:23 47.23532 20.10302 19677 ft 415 kts 310°
2026-05-07 13:23 47.25494 20.07220 18753 ft 410 kts 310°
2026-05-07 13:24 47.27432 20.04169 17821 ft 405 kts 310°
2026-05-07 13:24 47.29344 20.01156 16836 ft 398 kts 310°
2026-05-07 13:24 47.31212 19.98198 15660 ft 392 kts 310°
2026-05-07 13:24 47.33053 19.95270 14507 ft 385 kts 310°
2026-05-07 13:25 47.34867 19.92385 13332 ft 379 kts 310°
2026-05-07 13:25 47.36643 19.89562 12130 ft 372 kts 310°
2026-05-07 13:25 47.38388 19.86791 10981 ft 365 kts 310°
2026-05-07 13:25 47.40079 19.84108 9887 ft 358 kts 310°
2026-05-07 13:26 47.41737 19.81443 8820 ft 348 kts 309°
2026-05-07 13:26 47.43280 19.78716 7740 ft 342 kts 299°
2026-05-07 13:26 47.44204 19.75569 7141 ft 323 kts 280°
2026-05-07 13:26 47.44418 19.72437 7018 ft 293 kts 264°
2026-05-07 13:27 47.44066 19.69609 6889 ft 268 kts 249°
2026-05-07 13:27 47.43289 19.67259 6741 ft 243 kts 234°
2026-05-07 13:27 47.42282 19.65490 6663 ft 216 kts 222°
2026-05-07 13:27 47.41154 19.64169 6333 ft 201 kts 216°
2026-05-07 13:28 47.40031 19.62976 5682 ft 200 kts 215°
2026-05-07 13:28 47.38903 19.61779 5126 ft 199 kts 216°
2026-05-07 13:28 47.37767 19.60573 4379 ft 211 kts 216°
2026-05-07 13:28 47.36505 19.59231 4045 ft 234 kts 216°
2026-05-07 13:29 47.35196 19.57727 4002 ft 241 kts 223°
2026-05-07 13:29 47.33961 19.56045 3998 ft 243 kts 223°
2026-05-07 13:29 47.32712 19.54357 4004 ft 243 kts 223°
2026-05-07 13:29 47.31468 19.52681 4002 ft 243 kts 223°
2026-05-07 13:30 47.30414 19.50789 3953 ft 244 kts 246°
2026-05-07 13:30 47.30273 19.48389 3770 ft 235 kts 284°
2026-05-07 13:30 47.31171 19.46484 3540 ft 228 kts 321°
2026-05-07 13:30 47.32463 19.45227 3269 ft 213 kts 316°
2026-05-07 13:31 47.33434 19.43720 3004 ft 195 kts 307°
2026-05-07 13:31 47.34318 19.42244 2747 ft 189 kts 308°
2026-05-07 13:31 47.35196 19.40818 2506 ft 186 kts 309°
2026-05-07 13:31 47.36030 19.39479 2268 ft 170 kts 308°
2026-05-07 13:32 47.36808 19.38227 2046 ft 166 kts 307°
2026-05-07 13:32 47.37581 19.36981 1817 ft 164 kts 307°
2026-05-07 13:32 47.38341 19.35759 1596 ft 153 kts 308°
2026-05-07 13:32 47.39036 19.34643 1392 ft 144 kts 307°
2026-05-07 13:33 47.39704 19.33565 1213 ft 141 kts 308°
2026-05-07 13:33 47.40347 19.32517 1028 ft 138 kts 306°
2026-05-07 13:33 47.40988 19.31463 831 ft 137 kts 308°
2026-05-07 13:33 47.41634 19.30450 641 ft 137 kts 309°
2026-05-07 13:34 47.42278 19.29417 470 ft 137 kts 308°
2026-05-07 13:34 47.43247 19.27849 463 ft 56 kts 310°
2026-05-07 13:34 47.43364 19.27466 464 ft 37 kts 278°
2026-05-07 13:35 47.43400 19.27206 460 ft 22 kts 282°
2026-05-07 13:35 47.43445 19.26982 458 ft 23 kts 297°
2026-05-07 13:35 47.43536 19.26824 458 ft 20 kts 312°
2026-05-07 13:35 47.43634 19.26668 458 ft 22 kts 312°
2026-05-07 13:36 47.43735 19.26505 458 ft 15 kts 312°
2026-05-07 13:36 47.43717 19.26370 458 ft 16 kts 224°
2026-05-07 13:36 47.43630 19.26254 458 ft 18 kts 222°
2026-05-07 13:36 47.43535 19.26126 457 ft 19 kts 222°
2026-05-07 13:37 47.43472 19.26042 455 ft 16 kts 222°
2026-05-07 13:37 47.43385 19.25951 455 ft 8 kts 221°
2026-05-07 13:37 47.43345 19.25900 457 ft 3 kts 222°
2026-05-07 13:37 47.43338 19.25891 457 ft 0 kts 222°